This is the latest recevied weather packets stored in our database for station/object N4LLZ-13. If no packets are shown the sender has not sent any weather packets the latest 10 day(s).
| Time | Temp. | Humidity | Pressure | Rain* | Wind** | Luminosity | Snow |
|---|---|---|---|---|---|---|---|
| 1787754183 | 28.89° C | 67% | 1019.4 hPa | 0 mm | - | - | - |
| 1787753882 | 28.89° C | 67% | 1019.4 hPa | 0 mm | - | - | - |
| 1787753581 | 28.33° C | 67% | 1019.5 hPa | 0 mm | - | - | - |
| 1787753280 | 28.33° C | 70% | 1019.5 hPa | 0 mm | - | - | - |
| 1787752979 | 28.33° C | 70% | 1019.4 hPa | 0 mm | - | - | - |
| 1787752679 | 28.33° C | 70% | 1019.4 hPa | 0 mm | - | - | - |
| 1787752378 | 27.78° C | 69% | 1019.3 hPa | 0 mm | - | - | - |
| 1787752077 | 27.22° C | 71% | 1019.2 hPa | 0 mm | - | - | - |
| 1787751776 | 27.22° C | 70% | 1019.2 hPa | 0 mm | - | - | - |
| 1787751475 | 26.67° C | 72% | 1019.3 hPa | 0 mm | - | - | - |
| 1787751174 | 26.67° C | 72% | 1019.3 hPa | 0 mm | - | - | - |
| 1787750873 | 26.67° C | 71% | 1019.3 hPa | 0 mm | - | - | - |
| 1787750573 | 26.11° C | 73% | 1019.3 hPa | 0 mm | - | - | - |
| 1787750272 | 25.56° C | 73% | 1019.3 hPa | 0 mm | - | - | - |
| 1787749971 | 25° C | 75% | 1019.3 hPa | 0 mm | - | - | - |
| 1787749670 | 24.44° C | 76% | 1019.3 hPa | 0 mm | - | - | - |
| 1787749369 | 23.89° C | 78% | 1019.3 hPa | 0 mm | - | - | - |
| 1787749068 | 23.33° C | 79% | 1019.2 hPa | 0 mm | - | - | - |
| 1787748767 | 22.78° C | 81% | 1019.2 hPa | 0 mm | - | - | - |
| 1787748466 | 23.33° C | 80% | 1019.2 hPa | 0 mm | - | - | - |
| 1787748166 | 23.33° C | 80% | 1019.2 hPa | 0 mm | - | - | - |
| 1787747865 | 23.33° C | 80% | 1019.2 hPa | 0 mm | - | - | - |
| 1787747564 | 22.78° C | 79% | 1019.1 hPa | 0 mm | - | - | - |
| 1787747263 | 22.78° C | 81% | 1019.2 hPa | 0 mm | - | - | - |
| 1787746962 | 22.78° C | 79% | 1019.1 hPa | 0 mm | - | - | - |
* Rain latest hour (hover to see other rain measurements)
** Current wind speed in m/s (hover to see current wind gust speed)